timestamp,surface_pressure_avg,surface_temp_avg,battery_voltage,lat,long
2021-02-07 00:09:01+00:00,229.2798,2.3,12.49,47.84626,-54.09684
2021-02-07 00:19:01+00:00,233.4698,2.3,12.49,47.84626,-54.09684
2021-02-07 00:29:01+00:00,222.2664,2.3,12.49,47.84626,-54.09684
2021-02-07 00:39:01+00:00,222.4664,2.3,12.49,47.84626,-54.09684
2021-02-07 00:49:01+00:00,233.5914,2.3,12.49,47.84626,-54.09684
2021-02-07 00:59:01+00:00,226.5247,2.3,12.49,47.84626,-54.09684
2021-02-07 01:09:01+00:00,221.7515,2.3,12.49,47.84626,-54.09684
2021-02-07 01:19:01+00:00,233.5381,2.3,12.49,47.84626,-54.09684
2021-02-07 01:29:01+00:00,232.7547,2.3,12.49,47.84626,-54.09684
2021-02-07 01:39:01+00:00,223.3314,2.3,12.49,47.84626,-54.09684
2021-02-07 01:49:01+00:00,224.9031,2.3,12.49,47.84626,-54.09684
2021-02-07 01:59:01+00:00,229.6497,2.3,12.49,47.84626,-54.09684
2021-02-07 02:09:01+00:00,225.0298,2.3,12.49,47.84626,-54.09684
2021-02-07 02:19:01+00:00,222.6098,2.3,12.49,47.84626,-54.09684
2021-02-07 02:29:01+00:00,232.0598,2.3,12.49,47.84626,-54.09684
2021-02-07 02:39:01+00:00,237.7848,2.3,12.49,47.84626,-54.09684
2021-02-07 02:49:01+00:00,230.7165,2.3,12.49,47.84626,-54.09684
2021-02-07 02:59:01+00:00,226.4597,2.3,12.49,47.84626,-54.09684
2021-02-07 03:09:01+00:00,233.8264,2.3,12.49,47.84626,-54.09684
2021-02-07 03:19:01+00:00,234.0614,2.3,12.49,47.84626,-54.09684
2021-02-07 03:29:01+00:00,229.4231,2.3,12.49,47.84626,-54.09684
2021-02-07 03:39:01+00:00,234.7431,2.3,12.49,47.84626,-54.09684
2021-02-07 03:49:01+00:00,241.0565,2.3,12.49,47.84626,-54.09684
2021-02-07 03:59:01+00:00,242.5048,2.3,12.49,47.84626,-54.09684
2021-02-07 04:09:01+00:00,246.6397,2.3,12.49,47.84626,-54.09684
2021-02-07 04:19:01+00:00,257.673,2.3,12.49,47.84626,-54.09684
2021-02-07 04:29:01+00:00,266.1447,2.3,12.49,47.84626,-54.09684
2021-02-07 04:39:01+00:00,271.8014,2.3,12.49,47.84626,-54.09684
2021-02-07 04:49:01+00:00,277.1714,2.3,12.49,47.84626,-54.09684
2021-02-07 04:59:01+00:00,287.1714,2.3,12.49,47.84626,-54.09684
2021-02-07 05:09:01+00:00,291.0231,2.3,12.49,47.84626,-54.09684
2021-02-07 05:19:01+00:00,291.8164,2.3,12.49,47.84626,-54.09684
2021-02-07 05:29:01+00:00,289.8614,2.3,12.49,47.84626,-54.09684
2021-02-07 05:39:01+00:00,295.148,2.3,12.49,47.84626,-54.09684
2021-02-07 05:49:01+00:00,300.3196,2.3,12.49,47.84626,-54.09684
2021-02-07 05:59:01+00:00,303.8113,2.3,12.49,47.84626,-54.09684
2021-02-07 06:09:01+00:00,310.3897,2.3,12.49,47.84626,-54.09684
2021-02-07 06:19:01+00:00,317.1147,2.3,12.49,47.84626,-54.09684
2021-02-07 06:29:01+00:00,317.5247,2.3,12.49,47.84626,-54.09684
2021-02-07 06:39:01+00:00,319.1447,2.31,12.49,47.84626,-54.09684
2021-02-07 06:49:01+00:00,328.5179,2.3,12.49,47.84626,-54.09684
2021-02-07 06:59:01+00:00,337.2313,2.3,12.49,47.84626,-54.09684
2021-02-07 07:09:01+00:00,337.5714,2.33,12.49,47.84626,-54.09684
2021-02-07 07:19:01+00:00,340.0780000000001,2.35,12.49,47.84626,-54.09684
2021-02-07 07:29:01+00:00,344.7813,2.34,12.49,47.84626,-54.09684
2021-02-07 07:39:01+00:00,349.8981,2.36,12.49,47.84626,-54.09684
2021-02-07 07:49:01+00:00,347.4279,2.37,12.49,47.84626,-54.09684
2021-02-07 07:59:01+00:00,344.2396,2.38,12.49,47.84626,-54.09684
2021-02-07 08:09:01+00:00,343.5746,2.38,12.49,47.84626,-54.09684
2021-02-07 08:19:01+00:00,343.9363,2.38,12.49,47.84626,-54.09684
2021-02-07 08:29:01+00:00,340.05800000000005,2.38,12.49,47.84626,-54.09684
2021-02-07 08:39:01+00:00,336.4813,2.38,12.49,47.84626,-54.09684
2021-02-07 08:49:01+00:00,331.8547,2.37,12.49,47.84626,-54.09684
2021-02-07 08:59:01+00:00,332.8096,2.37,12.49,47.84626,-54.09684
2021-02-07 09:09:01+00:00,326.6331,2.38,12.49,47.84626,-54.09684
2021-02-07 09:19:01+00:00,318.2814,2.38,12.49,47.84626,-54.09684
2021-02-07 09:29:01+00:00,314.733,2.37,12.49,47.84626,-54.09684
2021-02-07 09:39:01+00:00,304.7314,2.37,12.49,47.84626,-54.09684
2021-02-07 09:49:01+00:00,297.7596,2.37,12.49,47.84626,-54.09684
2021-02-07 09:59:01+00:00,290.5698,2.37,12.49,47.84626,-54.09684
2021-02-07 10:09:01+00:00,287.053,2.36,12.49,47.84626,-54.09684
2021-02-07 10:19:01+00:00,279.1981,2.34,12.41,47.84626,-54.09684
2021-02-07 10:29:01+00:00,278.6797,2.34,12.41,47.84626,-54.09684
2021-02-07 10:39:01+00:00,276.0497,2.34,12.41,47.84626,-54.09684
2021-02-07 10:49:01+00:00,273.2531,2.33,12.41,47.84626,-54.09684
2021-02-07 10:59:01+00:00,266.7764,2.34,12.41,47.84626,-54.09684
2021-02-07 11:09:01+00:00,261.8131,2.34,12.41,47.84626,-54.09684
2021-02-07 11:19:01+00:00,256.3464,2.35,12.41,47.84626,-54.09684
2021-02-07 11:29:01+00:00,255.1381,2.35,12.41,47.84626,-54.09684
2021-02-07 11:39:01+00:00,248.6181,2.34,12.41,47.84626,-54.09684
2021-02-07 11:49:01+00:00,239.2097,2.3,12.41,47.84626,-54.09684
2021-02-07 11:59:01+00:00,234.5198,2.3,12.41,47.84626,-54.09684
2021-02-07 12:09:01+00:00,233.0914,2.3,12.41,47.84626,-54.09684
2021-02-07 12:19:01+00:00,237.3098,2.3,12.49,47.84626,-54.09684
2021-02-07 12:29:01+00:00,234.0681,2.3,12.49,47.84626,-54.09684
2021-02-07 12:39:01+00:00,228.7864,2.3,12.49,47.84626,-54.09684
2021-02-07 12:49:01+00:00,229.1914,2.3,12.49,47.84626,-54.09684
2021-02-07 12:59:01+00:00,230.528,2.3,12.49,47.84626,-54.09684
2021-02-07 13:09:01+00:00,222.9448,2.28,12.49,47.84626,-54.09684
2021-02-07 13:19:01+00:00,223.2131,2.27,13.21,47.84626,-54.09684
2021-02-07 13:29:01+00:00,228.8098,2.27,13.21,47.84626,-54.09684
2021-02-07 13:39:01+00:00,223.0465,2.24,13.21,47.84626,-54.09684
2021-02-07 13:49:01+00:00,220.1548,2.22,13.21,47.84626,-54.09684
2021-02-07 13:59:01+00:00,225.2347,2.24,13.21,47.84626,-54.09684
2021-02-07 14:09:01+00:00,225.6948,2.24,13.21,47.84626,-54.09684
2021-02-07 14:19:01+00:00,218.1214,2.2,13.76,47.84626,-54.09684
2021-02-07 14:29:01+00:00,217.0664,2.2,13.76,47.84626,-54.09684
2021-02-07 14:39:01+00:00,221.3781,2.23,13.76,47.84626,-54.09684
2021-02-07 14:49:01+00:00,215.9348,2.24,13.76,47.84626,-54.09684
2021-02-07 14:59:01+00:00,211.2264,2.25,13.76,47.84626,-54.09684
2021-02-07 15:09:01+00:00,209.8881,2.24,13.76,47.84626,-54.09684
2021-02-07 15:19:01+00:00,202.9164,2.24,14.48,47.84626,-54.09684
2021-02-07 15:29:01+00:00,197.3048,2.25,14.48,47.84626,-54.09684
2021-02-07 15:39:01+00:00,200.4664,2.26,14.48,47.84626,-54.09684
2021-02-07 15:49:01+00:00,202.9448,2.26,14.48,47.84626,-54.09684
2021-02-07 15:59:01+00:00,196.1065,2.24,14.48,47.84626,-54.09684
2021-02-07 16:09:01+00:00,194.9515,2.26,14.48,47.84626,-54.09684
2021-02-07 16:19:01+00:00,204.9798,2.27,14.32,47.84626,-54.09684
2021-02-07 16:29:01+00:00,206.6515,2.26,14.32,47.84626,-54.09684
2021-02-07 16:39:01+00:00,203.0931,2.28,14.32,47.84626,-54.09684
2021-02-07 16:49:01+00:00,208.5798,2.28,14.32,47.84626,-54.09684
2021-02-07 16:59:01+00:00,218.3781,2.29,14.32,47.84626,-54.09684
2021-02-07 17:09:01+00:00,227.2115,2.28,14.32,47.84626,-54.09684
2021-02-07 17:19:01+00:00,235.2881,2.29,14.64,47.84626,-54.09684
2021-02-07 17:29:01+00:00,245.1865,2.3,14.64,47.84626,-54.09684
2021-02-07 17:39:01+00:00,254.1814,2.3,14.64,47.84626,-54.09684
2021-02-07 17:49:01+00:00,258.1731,2.3,14.64,47.84626,-54.09684
2021-02-07 17:59:01+00:00,261.2514,2.3,14.64,47.84626,-54.09684
2021-02-07 18:09:01+00:00,269.1714,2.3,14.64,47.84626,-54.09684
2021-02-07 18:19:01+00:00,274.5464,2.3,14.56,47.84626,-54.09684
2021-02-07 18:29:01+00:00,276.4414,2.3,14.56,47.84626,-54.09684
2021-02-07 18:39:01+00:00,280.9581,2.3,14.56,47.84626,-54.09684
2021-02-07 18:49:01+00:00,292.223,2.3,14.56,47.84626,-54.09684
2021-02-07 18:59:01+00:00,295.248,2.3,14.56,47.84626,-54.09684
2021-02-07 19:09:01+00:00,299.5863,2.3,14.56,47.84626,-54.09684
2021-02-07 19:19:01+00:00,306.6347,2.3,14.32,47.84626,-54.09684
2021-02-07 19:29:01+00:00,315.7446,2.3,14.32,47.84626,-54.09684
2021-02-07 19:39:01+00:00,317.6263,2.3,14.32,47.84626,-54.09684
2021-02-07 19:49:01+00:00,321.5496,2.3,14.32,47.84626,-54.09684
2021-02-07 19:59:01+00:00,323.2048,2.3,14.32,47.84626,-54.09684
2021-02-07 20:09:01+00:00,330.0847,2.3,14.32,47.84626,-54.09684
2021-02-07 20:19:01+00:00,335.0162,2.29,13.76,47.84626,-54.09684
2021-02-07 20:29:01+00:00,332.4714,2.29,13.76,47.84626,-54.09684
2021-02-07 20:39:01+00:00,331.6329,2.28,13.76,47.84626,-54.09684
2021-02-07 20:49:01+00:00,330.6930000000001,2.26,13.76,47.84626,-54.09684
2021-02-07 20:59:01+00:00,327.0847,2.22,13.76,47.84626,-54.09684
2021-02-07 21:09:01+00:00,323.1431,2.2,13.76,47.84626,-54.09684
2021-02-07 21:19:01+00:00,320.7064,2.2,13.29,47.84626,-54.09684
2021-02-07 21:29:01+00:00,317.0613,2.26,13.29,47.84626,-54.09684
2021-02-07 21:39:01+00:00,307.3163,2.3,13.29,47.84626,-54.09684
2021-02-07 21:49:01+00:00,300.7513,2.32,13.29,47.84626,-54.09684
2021-02-07 21:59:01+00:00,297.2197,2.36,13.29,47.84626,-54.09684
2021-02-07 22:09:01+00:00,290.5947,2.33,13.29,47.84626,-54.09684
2021-02-07 22:19:01+00:00,285.2698,2.3,12.97,47.84626,-54.09684
2021-02-07 22:29:01+00:00,282.6464,2.3,12.97,47.84626,-54.09684
2021-02-07 22:39:01+00:00,276.578,2.26,12.97,47.84626,-54.09684
2021-02-07 22:49:01+00:00,264.0681,2.21,12.97,47.84626,-54.09684
2021-02-07 22:59:01+00:00,265.1348,2.2,12.97,47.84626,-54.09684
2021-02-07 23:09:01+00:00,263.5381,2.2,12.97,47.84626,-54.09684
2021-02-07 23:19:01+00:00,253.6514,2.2,12.73,47.84626,-54.09684
2021-02-07 23:29:01+00:00,247.7481,2.2,12.73,47.84626,-54.09684
2021-02-07 23:39:01+00:00,250.4448,2.2,12.73,47.84626,-54.09684
2021-02-07 23:49:01+00:00,246.9881,2.21,12.73,47.84626,-54.09684
2021-02-07 23:59:01+00:00,242.5481,2.3,12.73,47.84626,-54.09684
